User: anonymous   Login
Location: Unspecified
(0.0000°N, 0.0000°E)
Time: 19:03:45
(UTC+00:00)
Language:

OBJECT B - Orbit

View from above orbital plane
View from above orbital plane
View from above satellite
View from above satellite

Ground track
Ground track

The orbit is defined by the following mean orbital elements,

1 68415U          26145.29971786 +.00000000 +00000-0 +22248-3 0 00005
2 68415  84.9667 242.2937 0024231 337.8447  22.1727 14.88576399    04
Epoch (UTC): 25 May 2026 07:11:35
Eccentricity: 0.0024231
inclination: 84.9667°
perigee height: 585 km
apogee height: 619 km
right ascension of ascending node: 242.2937°
argument of perigee: 337.8447°
revolutions per day: 14.88576399
mean anomaly at epoch: 22.1727°

The dashed part of the orbit path shows where the satellite is in the earth's shadow,  

DLR